Hourly Data Report for April 01, 2003

SHERBROOKE A
QUEBEC

45°26'00.000" N
71°41'00.000" W
241.40 m
7028124
71610
YSC

Download Data

Hourly Data (April 2003)
Hourly Data Report for April 1, 2003
TIME
LST
Temp Definition
°C
Dew Point Definition
°C
Rel Hum Definition
%
Precip. Amount Definition
mm

Wind Dir Definition
10's deg

Wind Spd Definition
km/h
Visibility Definition
km
Stn Press Definition
kPa
Hmdx Definition


Wind Chill Definition


Weather Definition


00:00 -11.8 -15.8 72   27 7 15.0 98.23   -16  
01:00 -12.6 -16.2 74   26 9 15.0 98.29   -18  
02:00 -14.0 -17.1 77   24 7 15.0 98.35   -19  
03:00 -14.1 -17.8 74   25 9 15.0 98.40   -20  
04:00 -15.2 -17.6 82   26 7 15.0 98.45   -20  
05:00 -14.6 -18.0 75   25 11 15.0 98.52   -21  
06:00 -15.6 -17.9 82   26 9 15.0 98.61   -22  
07:00 -11.8 -16.6 67   26 7 15.0 98.66   -16  
08:00 -10.2 -16.0 62   27 15 24.1 98.68   -17 Clear
09:00 -8.9 -17.0 52   28 11 24.1 98.63   -14 Clear
10:00 -7.5 -16.1 50   28 17 24.1 98.60   -14 Mainly Clear
11:00 -6.3 -16.4 45   28 15 24.1 98.58   -12 Mainly Clear
12:00 -4.7 -16.1 40   21 7 24.1 98.52   -8 Mainly Clear
13:00 -3.3 -14.7 41   19 11 24.1 98.46   -8 Mostly Cloudy
14:00 -3.3 -15.8 37   20 9 24.1 98.42   -7 Mostly Cloudy
15:00 -2.1 -15.7 34   21 7 24.1 98.35   -5 Mostly Cloudy
16:00 -0.9 -14.7 34   24 7 24.1 98.32   -3 Mostly Cloudy
17:00 -1.6 -12.6 43   26 9 24.1 98.29   -5 Snow
18:00 -1.7 -9.5 55   19 7 15.0 98.31   -4  
19:00 -2.7 -6.1 77   17 7 15.0 98.38   -6 Snow
20:00 -3.1 -6.1 80   11 9 15.0 98.39   -7  
21:00 -3.1 -6.1 80   10 11 15.0 98.37   -7  
22:00 -2.9 -6.1 79   10 7 15.0 98.39   -6  
23:00 -2.8 -6.1 78   9 7 15.0 98.41   -6  

Notes on Data Quality.

Legend

  • E = Estimated
  • M = Missing
  • NA = Not Available*
  • [empty] = Indicates an unobserved value
Date modified: